Flag for U.S.A. Weather past 2 weeks in Cumberland, Maryland, U.S.A.

Now
34 °F

Overcast.


Feels Like: 27 °F
Forecast: 31 / 38 °F
Wind: 8 mph from Northwest

Location: Eastern West Virginia Regional Airport

Current Time: Dec 19, 2014 at 4:53:50 AM

Latest Report: Dec 19, 2014 at 3:53 AM


Visibility: 10 mi

Pressure: 30.13 "Hg

Humidity: 54%

Dew point: 19 °F

Location of CumberlandLocation

Historic Weather in Cumberland — Graph

°F

Cumberland temperature yesterday

Maximum temperature yesterday: 37 °F (at 12:53 AM)
Minimum temperature yesterday: 32 °F (at 6:53 AM)
Average temperature yesterday: 35 °F

Past Weeks' High & Low Weather Summary

 TemperatureHumidityPressure
High57 °F (Dec 15, 12:53 PM)89% (Dec 5, 8:53 PM)30.59 "Hg (Dec 5, 8:53 PM)
Low26 °F (Dec 8, 6:53 AM)20% (Dec 11, 8:53 PM)29.85 "Hg (Dec 11, 4:53 AM)
Average39 °F63%30.14 "Hg
* Reported Dec 4 3:53 AM — Dec 19 3:53 AM, Cumberland, Weather by CustomWeather, © 2014

Note: Actual official high and low records may vary slightly from our data, if they occured in-between our weather recording intervals... More about our weather records

Advertising

Cumberland weather history for previous 24 hours

 ConditionsComfort  
Time TempWeatherWind HumidityBarometerVisibility
3:53 AM
Dec 19
34 °FOvercast.8 mph54%30.13 "Hg10 mi
2:53 AM34 °FOvercast.12 mph54%30.13 "Hg10 mi
1:53 AM34 °FOvercast.5 mph54%30.12 "Hg10 mi
12:53 AM33 °FMostly cloudy.7 mph56%30.12 "Hg10 mi
11:53 PM
Dec 18
33 °FMostly cloudy.6 mph56%30.13 "Hg10 mi
10:53 PM34 °FOvercast.10 mph54%30.13 "Hg10 mi
9:53 PM34 °FPartly cloudy.6 mph56%30.13 "Hg10 mi
8:53 PM34 °FOvercast.10 mph54%30.13 "Hg10 mi
7:53 PM34 °FMostly cloudy.9 mph54%30.14 "Hg10 mi
6:53 PM35 °FPassing clouds.10 mph52%30.14 "Hg10 mi
5:53 PM35 °FPassing clouds.7 mph50%30.12 "Hg10 mi
4:53 PM35 °FClear.8 mph52%30.12 "Hg10 mi
3:53 PM36 °FSunny.8 mph50%30.11 "Hg10 mi
2:53 PM37 °FPassing clouds.10 mph46%30.11 "Hg10 mi
1:53 PM37 °FScattered clouds.15 mph48%30.12 "Hg10 mi
12:53 PM36 °FOvercast.8 mph52%30.15 "Hg10 mi
11:53 AM34 °FOvercast.15 mph56%30.18 "Hg10 mi
10:53 AM34 °FOvercast.12 mph54%30.19 "Hg10 mi
9:53 AM34 °FOvercast.8 mph52%30.19 "Hg10 mi
8:53 AM33 °FOvercast.8 mph52%30.18 "Hg10 mi
7:53 AM33 °FOvercast.13 mph52%30.17 "Hg10 mi
6:53 AM32 °FOvercast.7 mph52%30.16 "Hg10 mi
5:53 AM33 °FPassing clouds.12 mph49%30.14 "Hg10 mi
4:53 AM34 °FPassing clouds.18 mph52%30.12 "Hg10 mi
Weather by CustomWeather, © 2014

See weather overviewHow to use our weather pages